Location: Clanezzo
(45.7500°N, 9.6000°E)
Time: 03:33:24
(UTC+00:00)

Spot 4 - Pass Details

Date: 12 May 2021
Orbit: 703 x 724 km, 98.3° (Epoch: 18 June)

Event Time Altitude Azimuth Distance (km) Brightness Sun altitude
Exits shadow 22:42:01 62° 251° (WSW) 816 4.0 -25.4°
Maximum altitude 22:42:08 62° 259° (WSW) 814 4.0 -25.4°
Drops below altitude 10° 22:46:58 10° 340° (NNW) 2,221 7.4 -25.5°
Sets 22:49:17 0° 344° (NNW) 3,145 8.5 -25.5°
